Location: Goudex
(43.3760°N, 0.9543°E)
Time: 15:22:37
(UTC+00:00)

Cosmos 2173 Rocket - Pass Details

Date: 20 November 2019
Orbit: 944 x 1001 km, 83.0° (Epoch: 14 December)

Event Time Altitude Azimuth Distance (km) Brightness Sun altitude
Rises 04:40:47 0° 188° (S) 3,676 7.0 -24.2°
Reaches altitude 10° 04:43:18 10° 189° (S) 2,724 6.3 -23.8°
Maximum altitude 04:49:33 82° 277° (W) 984 3.8 -22.6°
Drops below altitude 10° 04:55:46 10° 6° (N) 2,702 6.3 -21.5°
Sets 04:58:15 0° 8° (N) 3,645 7.0 -21.1°
